Location: Bruderhein
(53.8035°N, 112.9265°W)
Time: 12:13:30
(UTC+00:00)

SEEDS - Visible Passes

Search period start: 02 April 2023 00:00
Search period end: 12 April 2023 00:00
Orbit: 573 x 588 km, 97.6° (Epoch: 01 April)

Date Brightness Start Highest point End Pass type
(mag) Time Alt. Az. Time Alt. Az. Time Alt. Az.
02 Apr ? 10:57:17 10° NNE 11:00:59 30° E 11:04:41 10° SSE visible
03 Apr ? 11:02:14 10° NNE 11:06:02 33° E 11:09:50 10° SSE visible
04 Apr ? 11:07:10 10° NNE 11:11:04 37° E 11:14:56 10° SSE visible
05 Apr ? 11:12:06 10° NNE 11:16:04 41° E 11:20:01 10° S visible
06 Apr ? 11:17:01 10° NNE 11:21:04 45° E 11:25:04 10° S visible
07 Apr ? 11:21:56 10° NNE 11:26:02 51° E 11:30:05 10° S visible
08 Apr ? 11:26:50 10° NNE 11:30:58 56° E 11:35:03 10° S visible
09 Apr ? 11:31:44 10° NNE 11:35:54 63° ESE 11:40:01 10° S visible
10 Apr ? 11:36:37 10° NNE 11:40:48 70° ESE 11:44:56 10° S visible
11 Apr ? 10:08:28 10° ENE 10:09:37 11° E 10:10:47 10° E visible
11 Apr ? 11:41:30 10° NNE 11:45:42 78° ESE 11:49:50 10° S visible
